Tracking 19246 objects as of 21-Sep-2018
HD Live streaming from Space Station
objects crossing your sky now

FENGYUN 1C DEB

Track FENGYUN 1C DEB now!
10-day predictions


NORAD ID: 36188
Int'l Code: 1999-025DTM
Perigee: 746.1 km
Apogee: 859.4 km
Inclination: 98.7 °
Period: 100.8 minutes
Semi major axis: 7173 km
RCS: 0.0031 m2 (small)
Launch date: May 10, 1999
Source: People's Republic of China (PRC)
Launch site: Taiyaun Space Center, China (TSC)

Note: This is SATELLITE DEBRIS
aabbcc
Your satellite tracking list
Your tracking list is empty




NASA's NSSDC Master Catalog

Two Line Element Set (TLE):
1 36188U 99025DTM 18259.93324253 +.00000773 +00000-0 +31370-3 0  9991
2 36188 098.7499 312.6440 0078950 218.8062 140.7433 14.28842891501061
Source of the keplerian elements: AFSPC